Retour au catalogue

FREGAT DEB

LostUNKNOWN
NORAD 45828·DEBRIS·🇷🇺 Russia

Lancé Jul 18, 2011 depuis Baikonur Cosmodrome

Loading…

Prochains Passages (prochaines 24 heures)

TLE

PériméSource: Space-Track

Époque: Jul 14, 2020, 09:30 UTC

1 45828U 11037BN  20196.39617862 -.00107127  00000-0 -45031+0 0  9991
2 45828  51.3397 326.6549 2171290  70.9038 311.3232  9.81368529  4102

Suivez FREGAT DEB en temps réel avec AllMySat

Download on the App Store